[[{"header":{"parameterUnit":"m.s-1","parameterCategory":1,"la1":30.2991,"la2":30.254,"lo1":-89.0895,"lo2":-89.0444,"dy":0.0017,"dx":0.0017,"nx":28,"ny":28,"refTime":"2024-02-26T03:00:00:Z","depth":0,"parameterNumber":2,"parameterNumberName":"U-component_of_WINDS"},"data":[0,0,0,0,0,0,0,0,0,0,0,0,0,0,0,0,0,0,0,0,0,0,0,0,0,0,0,0,0,0,0,0,0,0,0,0,0,0,0,0,0,0,0,0,0,0,0,0,0,0,0,0,0,0,0,0,0,0,-0.8171,-0.8172,0,-0.8255,-0.8256,-0.8257,-0.8303,-0.8303,-0.8303,-0.8303,-0.8391,-0.8393,-0.8395,0,0,0,0,0,0,0,0,0,0,0,0,0,-0.8053,-0.8055,-0.8171,-0.8172,-0.8173,-0.8254,-0.8256,-0.8257,-0.8303,-0.8303,-0.8303,-0.8303,-0.839,-0.8392,-0.8395,0,0,0,0,0,0,0,0,0,0,0,0,0,-0.8117,-0.8055,-0.8171,-0.8206,-0.821,-0.8254,-0.8256,-0.8257,-0.8303,-0.8303,-0.8303,-0.8303,-0.8389,-0.8392,-0.8395,-0.8412,0,0,-0.8406,-0.8407,0,0,0,0,0,0,0,0,-0.8113,-0.8121,-0.8199,-0.8203,-0.8208,-0.8268,-0.8246,-0.8309,-0.8303,-0.8267,-0.8303,-0.8303,-0.835,-0.8356,-0.8372,-0.8416,-0.842,-0.8406,-0.8408,-0.8409,-0.841,0,0,0,0,0,0,0,-0.8109,-0.8118,-0.8204,-0.8201,-0.8206,-0.8218,-0.8227,-0.8258,-0.8307,-0.827,-0.8274,-0.8283,-0.8352,-0.8368,-0.8374,-0.8421,-0.8406,-0.8409,-0.8411,-0.8412,-0.8485,-0.8485,0,0,0,0,0,0,-0.8099,-0.8114,-0.8201,-0.8207,-0.816,-0.822,-0.823,-0.8249,-0.8306,-0.8315,-0.8283,-0.8285,-0.8363,-0.837,-0.8377,-0.8401,-0.8409,-0.8412,-0.8414,-0.8485,-0.8485,-0.8485,0,0,0,0,0,0,-0.8096,-0.8106,-0.8198,-0.8161,-0.8174,-0.8222,-0.8242,-0.825,-0.8267,-0.8316,-0.8325,-0.8291,-0.8363,-0.8373,-0.8403,-0.8405,-0.8414,-0.8417,-0.8485,-0.8485,-0.8485,-0.8449,0,0,0,0,0,0,-0.8092,-0.8105,-0.8111,-0.8161,-0.8176,-0.8222,-0.8242,-0.8252,-0.8272,-0.8276,-0.8325,-0.8334,-0.8364,-0.8398,-0.8407,-0.841,-0.8419,-0.8485,-0.8485,-0.8485,-0.845,-0.8447,-0.8445,0,0,0,0,0,-0.8088,-0.8098,-0.8111,-0.8121,-0.8184,-0.8222,-0.823,-0.8264,-0.8272,-0.8279,-0.8311,-0.8332,-0.8403,-0.8401,-0.8411,-0.8415,-0.8485,-0.8485,-0.8485,-0.8451,-0.8448,-0.8445,0,0,0,0,0,0,-0.8047,-0.8105,-0.812,-0.8146,-0.8179,-0.8229,-0.8239,-0.826,-0.8291,-0.8293,-0.8335,-0.8346,-0.8372,-0.8397,-0.8393,-0.8435,-0.8447,-0.8448,-0.8417,-0.8415,-0.8413,-0.8406,-0.8422,0,0,0,0,0,-0.8041,-0.8065,-0.8115,-0.8133,-0.8149,-0.8191,-0.8209,-0.8232,-0.8267,-0.8282,-0.8316,-0.835,-0.838,-0.8399,-0.8429,-0.8454,-0.8466,-0.8462,-0.8459,-0.8457,-0.8458,-0.8474,-0.8473,-0.8484,-0.8484,-0.8484,0,0,-0.8028,-0.8063,-0.8076,-0.8126,-0.8154,-0.8179,-0.8202,-0.8228,-0.8247,-0.8286,-0.8316,-0.8343,-0.8384,-0.8411,-0.8425,-0.8433,-0.8458,-0.8457,-0.8455,-0.8457,-0.8474,-0.8472,-0.8471,-0.8484,-0.8484,-0.8484,0,0,-0.8019,-0.8048,-0.8066,-0.8094,-0.8135,-0.8163,-0.8168,-0.8216,-0.8234,-0.8266,-0.8295,-0.832,-0.8371,-0.8399,-0.842,-0.8422,-0.8443,-0.8431,-0.8418,-0.8433,-0.8432,-0.8431,-0.8432,-0.8432,-0.8431,-0.8431,-0.8431,0,-0.7999,-0.8037,-0.8073,-0.8097,-0.8119,-0.8154,-0.8174,-0.8199,-0.8248,-0.8263,-0.827,-0.8335,-0.8365,-0.84,-0.8401,-0.8417,-0.8424,-0.8425,-0.8429,-0.8429,-0.8429,-0.843,-0.843,-0.843,-0.843,-0.843,-0.843,0,-0.801,-0.8037,-0.8047,-0.8093,-0.8116,-0.8138,-0.8178,-0.8196,-0.8218,-0.8246,-0.8278,-0.8315,-0.8354,-0.8365,-0.8386,-0.8403,-0.8406,-0.8421,-0.8434,-0.8425,-0.8427,-0.8428,-0.8427,-0.8428,-0.8428,-0.8429,0,0,-0.7977,-0.8043,-0.8046,-0.8068,-0.8117,-0.8139,-0.8162,-0.82,-0.8215,-0.8249,-0.827,-0.8313,-0.8327,-0.8351,-0.8376,-0.8389,-0.8389,-0.8402,-0.8404,-0.8398,-0.841,-0.8399,-0.8399,-0.8403,-0.8403,-0.8404,-0.8407,0,-0.7974,-0.8018,-0.8051,-0.8082,-0.8107,-0.8142,-0.8163,-0.8196,-0.8222,-0.8248,-0.8279,-0.8308,-0.8324,-0.8339,-0.8353,-0.8385,-0.8392,-0.8386,-0.8424,-0.8425,-0.8412,-0.84,-0.8388,-0.8389,-0.8408,-0.8408,-0.8408,0,-0.7977,-0.8009,-0.8042,-0.8089,-0.8101,-0.8119,-0.8156,-0.818,-0.8219,-0.8238,-0.8264,-0.8291,-0.8318,-0.8329,-0.8368,-0.8363,-0.8381,-0.84,-0.8401,-0.8405,-0.8416,-0.8405,-0.8391,-0.8391,-0.841,-0.841,-0.841,0,-0.7949,-0.8,-0.8027,-0.8045,-0.81,-0.8112,-0.8135,-0.8174,-0.8195,-0.8228,-0.8242,-0.8278,-0.8298,-0.8326,-0.8362,-0.8366,-0.8398,-0.8411,-0.8415,-0.8414,-0.8419,-0.8418,-0.8408,-0.8431,-0.8431,-0.8431,-0.8431,0,-0.7943,-0.7962,-0.8015,-0.8031,-0.8054,-0.8093,-0.8115,-0.8142,-0.8176,-0.8199,-0.8231,-0.8252,-0.8299,-0.8326,-0.8354,-0.8382,-0.8391,-0.8408,-0.8415,-0.8405,-0.8403,-0.8417,-0.8418,-0.8431,-0.8431,-0.8431,-0.8431,0,-0.7915,-0.7952,-0.7983,-0.8033,-0.8046,-0.806,-0.8104,-0.8121,-0.815,-0.8179,-0.8188,-0.8234,-0.8267,-0.8306,-0.8352,-0.8371,-0.8398,-0.8409,-0.8384,-0.8389,-0.839,-0.8389,-0.8388,-0.839,-0.8411,-0.8411,-0.8411,0,-0.7908,-0.7924,-0.7975,-0.7993,-0.8015,-0.8043,-0.8064,-0.8103,-0.8124,-0.817,-0.8182,-0.8218,-0.8249,-0.8301,-0.8339,-0.8375,-0.8387,-0.8384,-0.8393,-0.8382,-0.8387,-0.8386,-0.8388,-0.8382,-0.8381,-0.8381,-0.8381,0,-0.7893,-0.791,-0.7939,-0.7974,-0.7999,-0.8029,-0.806,-0.8073,-0.8119,-0.8141,-0.8175,-0.8199,-0.8247,-0.8282,-0.8323,-0.8349,-0.8373,-0.8378,-0.838,-0.837,-0.8355,-0.8363,-0.8378,-0.8377,-0.8378,-0.8378,-0.8378,-0.8378,-0.7876,-0.7891,-0.793,-0.7961,-0.7989,-0.8018,-0.8037,-0.8068,-0.8097,-0.8138,-0.816,-0.8194,-0.8234,-0.8291,-0.8316,-0.8344,-0.8352,-0.8356,-0.8357,-0.8357,-0.8354,-0.8351,-0.8352,-0.8352,-0.8352,-0.8352,-0.8352,0,-0.7862,-0.7888,-0.7917,-0.7959,-0.7984,-0.8004,-0.804,-0.806,-0.8089,-0.8124,-0.8153,-0.8193,-0.8228,-0.8269,-0.8307,-0.8322,-0.8334,-0.833,-0.833,-0.8335,-0.8345,-0.8339,-0.832,-0.832,-0.832,-0.832,-0.832,-0.832,-0.7857,-0.7884,-0.7906,-0.7948,-0.7975,-0.8008,-0.8027,-0.8054,-0.8082,-0.8125,-0.8154,-0.818,-0.8218,-0.8259,-0.8292,-0.8303,-0.8316,-0.8309,-0.8324,-0.8332,-0.8335,-0.8337,-0.8332,-0.8312,-0.8312,-0.8312,-0.8312,-0.8312]},{"header":{"parameterUnit":"m.s-1","parameterCategory":1,"la1":30.2991,"la2":30.254,"lo1":-89.0895,"lo2":-89.0444,"dy":0.0017,"dx":0.0017,"nx":28,"ny":28,"refTime":"2024-02-26T03:00:00:Z","depth":0,"parameterNumber":3,"parameterNumberName":"V-component_of_WINDS"},"data":[0,0,0,0,0,0,0,0,0,0,0,0,0,0,0,0,0,0,0,0,0,0,0,0,0,0,0,0,0,0,0,0,0,0,0,0,0,0,0,0,0,0,0,0,0,0,0,0,0,0,0,0,0,0,0,0,0,0,5.1535,5.1536,0,5.167,5.1671,5.1673,5.1716,5.1716,5.1715,5.1715,5.1854,5.1858,5.1862,0,0,0,0,0,0,0,0,0,0,0,0,0,5.1318,5.1321,5.1535,5.1536,5.1538,5.1669,5.1671,5.1673,5.1716,5.1716,5.1715,5.1714,5.1852,5.1857,5.1862,0,0,0,0,0,0,0,0,0,0,0,0,0,5.1428,5.1323,5.1534,5.1575,5.158,5.1669,5.1671,5.1674,5.1717,5.1716,5.1715,5.1714,5.1851,5.1857,5.1863,5.1921,0,0,5.1883,5.1885,0,0,0,0,0,0,0,0,5.1422,5.1436,5.1568,5.1573,5.1578,5.1675,5.1646,5.1757,5.1717,5.1665,5.1715,5.1713,5.1795,5.1806,5.1833,5.1927,5.1933,5.1883,5.1887,5.189,5.1892,0,0,0,0,0,0,0,5.1414,5.1431,5.1588,5.157,5.1576,5.1588,5.1603,5.1667,5.1733,5.1669,5.1673,5.1688,5.1798,5.1827,5.1837,5.1935,5.1883,5.1889,5.1893,5.1895,5.2088,5.2089,0,0,0,0,0,0,5.1399,5.1424,5.1584,5.1592,5.1496,5.1593,5.1609,5.1645,5.1733,5.1745,5.1689,5.169,5.1817,5.1829,5.1842,5.1919,5.189,5.1896,5.19,5.2087,5.2089,5.209,0,0,0,0,0,0,5.1394,5.1413,5.1578,5.1509,5.1531,5.1598,5.1637,5.1648,5.1678,5.1748,5.176,5.1706,5.1816,5.1833,5.1902,5.1924,5.1899,5.1905,5.2085,5.2087,5.2089,5.207,0,0,0,0,0,0,5.1388,5.1411,5.1433,5.1509,5.1535,5.1635,5.1639,5.1652,5.1688,5.1691,5.1767,5.1779,5.1817,5.1892,5.1908,5.1932,5.191,5.2084,5.2086,5.2089,5.2069,5.2071,5.2073,0,0,0,0,0,5.138,5.1421,5.1433,5.1453,5.1563,5.1636,5.1651,5.1693,5.169,5.1713,5.1759,5.1777,5.1918,5.1899,5.1917,5.1943,5.2083,5.2086,5.2088,5.2068,5.207,5.2073,0,0,0,0,0,0,5.1345,5.1432,5.1446,5.1513,5.1567,5.1643,5.1673,5.1694,5.175,5.175,5.18,5.1817,5.1883,5.192,5.1897,5.2006,5.2002,5.2008,5.198,5.1983,5.1984,5.1975,5.1915,0,0,0,0,0,5.1345,5.1396,5.147,5.1522,5.1548,5.1606,5.1639,5.1668,5.1726,5.1749,5.1799,5.1855,5.1913,5.1949,5.2006,5.2074,5.2093,5.2102,5.2103,5.2105,5.211,5.2153,5.2158,5.2099,5.2099,5.2099,0,0,5.1345,5.1399,5.1428,5.1516,5.1561,5.1615,5.1625,5.168,5.1721,5.1757,5.1826,5.1865,5.1931,5.2001,5.2034,5.2034,5.2131,5.2108,5.2109,5.2114,5.2156,5.2162,5.2167,5.2101,5.2101,5.2101,0,0,5.1374,5.1419,5.1469,5.1514,5.1583,5.1622,5.1634,5.1708,5.1735,5.1805,5.1835,5.1884,5.1981,5.2029,5.2065,5.2115,5.2135,5.2132,5.2143,5.2183,5.2188,5.2193,5.2213,5.222,5.2138,5.2137,5.2137,0,5.1366,5.1447,5.1492,5.1547,5.1586,5.1622,5.1674,5.1716,5.1799,5.1826,5.1825,5.195,5.1997,5.208,5.2092,5.212,5.2137,5.2124,5.2184,5.2189,5.2193,5.2214,5.2221,5.2137,5.2137,5.2137,5.2137,0,5.1436,5.1492,5.1524,5.1605,5.1648,5.1701,5.1755,5.1793,5.1819,5.1858,5.1931,5.1989,5.2059,5.2081,5.2105,5.2169,5.2167,5.2173,5.217,5.2198,5.2218,5.2226,5.2136,5.2136,5.2136,5.2137,0,0,5.1444,5.1551,5.1563,5.1602,5.1681,5.1726,5.1782,5.1852,5.1885,5.1942,5.1992,5.2075,5.2083,5.2125,5.2155,5.2191,5.2231,5.2194,5.2197,5.2201,5.2308,5.2304,5.2312,5.2244,5.2246,5.2247,5.2303,0,5.1485,5.1587,5.163,5.1713,5.1767,5.1803,5.1853,5.1908,5.1948,5.2,5.2044,5.2103,5.2108,5.2134,5.2171,5.2218,5.2254,5.2215,5.2294,5.2296,5.2278,5.2322,5.2317,5.2367,5.2311,5.2313,5.2314,0,5.1545,5.1604,5.1692,5.1769,5.1794,5.1837,5.1907,5.1956,5.202,5.2047,5.2095,5.2125,5.2187,5.2179,5.2268,5.2241,5.2276,5.2304,5.2307,5.2318,5.2307,5.2336,5.2384,5.2392,5.2326,5.2325,5.2324,0,5.1546,5.1647,5.1714,5.1746,5.1836,5.1867,5.1906,5.197,5.201,5.2071,5.2098,5.2165,5.2202,5.2254,5.2302,5.2291,5.2387,5.2382,5.2413,5.2412,5.2432,5.243,5.2488,5.2451,5.2451,5.2451,5.245,0,5.1588,5.1641,5.1717,5.1758,5.1819,5.187,5.193,5.1972,5.2029,5.208,5.2115,5.2163,5.2222,5.2278,5.2316,5.2386,5.2401,5.2426,5.2436,5.2424,5.2421,5.2449,5.2447,5.2453,5.2452,5.2452,5.2451,0,5.1599,5.1651,5.1727,5.1808,5.1829,5.1872,5.1941,5.1984,5.2026,5.2091,5.2109,5.2175,5.2243,5.2296,5.2383,5.2409,5.2484,5.2493,5.2462,5.2468,5.2496,5.2494,5.2576,5.259,5.254,5.2541,5.2541,0,5.1623,5.1665,5.1751,5.1788,5.1828,5.1887,5.1929,5.1981,5.2023,5.2102,5.2136,5.2207,5.2266,5.2374,5.243,5.2499,5.2512,5.2536,5.2522,5.251,5.2515,5.2513,5.2519,5.2538,5.2538,5.2538,5.2538,0,5.1661,5.1686,5.1745,5.1814,5.1864,5.1921,5.1978,5.2007,5.207,5.2117,5.2187,5.2234,5.2325,5.2396,5.2471,5.2513,5.2537,5.2542,5.2554,5.2543,5.2524,5.2538,5.2469,5.254,5.254,5.254,5.254,5.254,5.1681,5.1722,5.179,5.1855,5.1905,5.1959,5.2004,5.2053,5.2112,5.2191,5.2219,5.2292,5.236,5.2463,5.2506,5.2565,5.2566,5.2582,5.2586,5.259,5.259,5.2513,5.2579,5.2579,5.2579,5.2579,5.2579,0,5.1723,5.1769,5.1829,5.191,5.1963,5.1981,5.2047,5.2091,5.2155,5.2215,5.2274,5.2357,5.2427,5.249,5.2563,5.2599,5.2612,5.2617,5.2616,5.2626,5.2583,5.2568,5.2605,5.2605,5.2605,5.2605,5.2605,5.2605,5.1751,5.1822,5.1855,5.1952,5.1999,5.2071,5.2108,5.2159,5.2208,5.23,5.2358,5.2399,5.2462,5.2541,5.2606,5.2623,5.265,5.2652,5.2672,5.2631,5.2628,5.2625,5.2611,5.2657,5.2657,5.271,5.271,5.2711]}]]